User: anonymous   Login
Location: Clinton NY
(43.0598°N, 75.3602°W)
Time: 06:41:54
(UTC-05:00)
Language:

ISS - Orbit

View from above orbital plane
View from above orbital plane
View from above satellite
View from above satellite

Ground track
Ground track

The orbit data is extracted from the following two-line orbital elements,

1 25544U 98067A   14331.15813002  .00017465  00000-0  29671-3 0  4684
2 25544 051.6476 011.5930 0007413 071.4837 346.9322 15.51522971916615
Epoch (UTC): 27 November 2014 03:47:42
Eccentricity: 0.0007413
inclination: 51.6476°
perigee height: 407 km
apogee height: 417 km
right ascension of ascending node: 11.5930°
argument of perigee: 71.4837°
revolutions per day: 15.51522971
mean anomaly at epoch: 346.9322°
orbit number at epoch: 91661

The dashed part of the orbit path shows where the satellite is in the earth's shadow,  

DLR